QPF
0.00 0.00 0.03 0.01 0.02 0.05 0.04 0.00 0.00 0.00 0.00 0.00 0.00 0.00 0.00 0.00 0.00 0.00 0.00 0.00 0.00 0.00 0.00 0.00 0.01 0.00 0.00 0.00 0.00 0.01 0.02 0.01 0.00 0.00 0.00 0.00 0.00 0.00 0.00 0.00 0.00 0.00 0.00 0.00 0.00 0.00 0.00 0.00 0.00
0.00 0.05 0.04 0.02 0.06 0.05 0.01 0.00 0.00 0.00 0.00 0.00 0.00 0.00 0.00 0.00 0.00 0.00 0.00 0.00 0.00 0.00 0.00 0.00 0.00 0.00 0.00 0.00 0.00 0.00 0.00 0.00 0.00 0.00 0.00 0.00 0.00 0.00 0.00 0.00 0.00 0.00 0.00 0.00 0.00 0.00 0.00 0.00 0.00
0.08 0.07 0.03 0.02 0.07 0.02 0.00 0.00 0.00 0.00 0.00 0.00 0.00 0.00 0.00 0.00 0.00 0.00 0.00 0.00 0.00 0.00 0.00 0.00 0.00 0.00 0.00 0.00 0.00 0.01 0.00 0.00 0.00 0.00 0.00 0.00 0.00 0.00 0.00 0.00 0.00 0.00 0.00 0.00 0.00 0.00 0.00 0.00 0.01
0.13 0.02 0.01 0.06 0.02 0.00 0.00 0.00 0.00 0.00 0.00 0.00 0.00 0.00 0.00 0.00 0.00 0.00 0.00 0.00 0.00 0.00 0.00 0.00 0.00 0.00 0.00 0.00 0.00 0.00 0.00 0.00 0.00 0.00 0.00 0.00 0.00 0.00 0.00 0.00 0.00 0.00 0.00 0.00 0.00 0.00 0.00 0.00 0.00
0.13 0.00 0.05 0.06 0.01 0.00 0.00 0.00 0.00 0.00 0.00 0.00 0.00 0.00 0.00 0.00 0.00 0.00 0.00 0.00 0.00 0.00 0.00 0.00 0.00 0.00 0.00 0.00 0.00 0.00 0.00 0.00 0.00 0.00 0.00 0.00 0.00 0.00 0.00 0.00 0.00 0.00 0.00 0.02 0.03 0.00 0.00 0.00 0.00
0.01 0.00 0.05 0.04 0.00 0.00 0.00 0.00 0.00 0.00 0.00 0.00 0.00 0.00 0.00 0.00 0.00 0.00 0.00 0.00 0.00 0.00 0.00 0.00 0.00 0.00 0.00 0.00 0.00 0.00 0.00 0.00 0.00 0.00 0.00 0.00 0.00 0.00 0.00 0.00 0.00 0.02 0.07 0.09 0.04 0.00 0.00 0.00 0.00
0.07 0.03 0.05 0.08 0.01 0.00 0.02 0.02 0.00 0.00 0.00 0.00 0.00 0.00 0.00 0.00 0.00 0.00 0.00 0.00 0.00 0.00 0.00 0.00 0.00 0.00 0.00 0.00 0.00 0.00 0.00 0.00 0.00 0.00 0.00 0.00 0.00 0.00 0.02 0.02 0.00 0.01 0.07 0.06 0.00 0.00 0.00 0.00 0.00
0.06 0.02 0.03 0.04 0.02 0.01 0.01 0.00 0.00 0.00 0.00 0.00 0.00 0.00 0.00 0.00 0.00 0.00 0.00 0.00 0.00 0.00 0.00 0.00 0.00 0.00 0.00 0.00 0.00 0.00 0.00 0.00 0.00 0.00 0.00 0.00 0.00 0.00 0.02 0.02 0.00 0.00 0.04 0.09 0.02 0.00 0.00 0.00 0.00
0.02 0.04 0.01 0.03 0.05 0.02 0.00 0.00 0.01 0.00 0.00 0.00 0.00 0.00 0.00 0.00 0.00 0.00 0.00 0.00 0.00 0.00 0.00 0.00 0.00 0.00 0.00 0.00 0.00 0.00 0.00 0.00 0.00 0.00 0.00 0.00 0.00 0.00 0.00 0.00 0.01 0.00 0.02 0.02 0.00 0.00 0.00 0.00 0.00
0.00 0.01 0.00 0.01 0.04 0.13 0.06 0.03 0.01 0.01 0.01 0.00 0.00 0.00 0.00 0.00 0.00 0.00 0.00 0.00 0.00 0.00 0.00 0.00 0.00 0.00 0.00 0.00 0.00 0.00 0.00 0.00 0.00 0.02 0.02 0.00 0.02 0.02 0.01 0.03 0.02 0.00 0.00 0.00 0.00 0.00 0.00 0.00 0.00
0.00 0.00 0.00 0.00 0.01 0.13 0.12 0.04 0.05 0.02 0.01 0.00 0.00 0.00 0.00 0.00 0.00 0.00 0.00 0.00 0.00 0.00 0.00 0.00 0.00 0.00 0.00 0.00 0.01 0.01 0.00 0.00 0.00 0.00 0.01 0.00 0.01 0.00 0.00 0.00 0.00 0.00 0.00 0.00 0.01 0.00 0.00 0.00 0.00
0.00 0.00 0.00 0.00 0.01 0.00 0.06 0.17 0.13 0.06 0.05 0.00 0.00 0.00 0.00 0.00 0.00 0.00 0.00 0.00 0.00 0.00 0.00 0.00 0.00 0.00 0.00 0.00 0.00 0.00 0.00 0.01 0.00 0.00 0.00 0.00 0.00 0.00 0.00 0.00 0.00 0.00 0.00 0.00 0.00 0.00 0.00 0.00 0.00
0.00 0.00 0.00 0.01 0.07 0.04 0.02 0.09 0.17 0.12 0.07 0.02 0.00 0.00 0.00 0.00 0.00 0.00 0.00 0.00 0.00 0.00 0.00 0.00 0.00 0.00 0.00 0.00 0.00 0.00 0.00 0.00 0.00 0.01 0.00 0.00 0.00 0.00 0.00 0.00 0.00 0.00 0.00 0.00 0.00 0.01 0.00 0.00 0.00
0.00 0.00 0.00 0.00 0.08 0.09 0.09 0.05 0.16 0.12 0.07 0.04 0.01 0.00 0.00 0.00 0.00 0.00 0.00 0.00 0.00 0.00 0.00 0.00 0.00 0.00 0.00 0.00 0.00 0.00 0.01 0.00 0.00 0.05 0.05 0.02 0.03 0.08 0.00 0.00 0.00 0.00 0.00 0.00 0.00 0.00 0.00 0.00 0.00
0.00 0.00 0.00 0.00 0.01 0.04 0.01 0.02 0.07 0.12 0.05 0.01 0.00 0.00 0.00 0.00 0.00 0.00 0.00 0.00 0.00 0.00 0.00 0.00 0.00 0.00 0.00 0.00 0.00 0.01 0.01 0.00 0.01 0.02 0.03 0.01 0.04 0.07 0.01 0.00 0.00 0.00 0.00 0.00 0.00 0.00 0.00 0.00 0.00
0.00 0.00 0.00 0.00 0.00 0.01 0.01 0.01 0.01 0.11 0.09 0.01 0.00 0.00 0.00 0.00 0.00 0.00 0.00 0.00 0.00 0.00 0.00 0.00 0.00 0.00 0.00 0.00 0.00 0.00 0.00 0.00 0.00 0.00 0.00 0.00 0.00 0.00 0.00 0.00 0.00 0.00 0.00 0.00 0.00 0.00 0.00 0.00 0.00
0.00 0.00 0.00 0.00 0.00 0.00 0.00 0.00 0.00 0.01 0.05 0.03 0.00 0.00 0.00 0.00 0.00 0.00 0.00 0.00 0.00 0.00 0.00 0.00 0.00 0.00 0.00 0.00 0.00 0.00 0.00 0.00 0.00 0.00 0.00 0.00 0.00 0.00 0.00 0.00 0.00 0.00 0.00 0.00 0.00 0.00 0.00 0.00 0.00
0.00 0.00 0.00 0.01 0.00 0.00 0.00 0.00 0.00 0.00 0.01 0.02 0.02 0.01 0.00 0.00 0.00 0.00 0.00 0.00 0.00 0.00 0.00 0.00 0.00 0.00 0.00 0.00 0.00 0.00 0.00 0.00 0.00 0.00 0.00 0.00 0.00 0.00 0.00 0.00 0.00 0.00 0.00 0.00 0.00 0.00 0.00 0.00 0.00
0.00 0.00 0.00 0.00 0.00 0.00 0.00 0.00 0.00 0.00 0.00 0.02 0.02 0.00 0.00 0.00 0.00 0.00 0.00 0.00 0.00 0.00 0.00 0.00 0.00 0.00 0.00 0.00 0.00 0.01 0.00 0.00 0.00 0.00 0.00 0.00 0.00 0.00 0.00 0.00 0.00 0.00 0.00 0.00 0.00 0.00 0.00 0.00 0.00
0.00 0.00 0.00 0.00 0.00 0.00 0.00 0.00 0.00 0.00 0.00 0.00 0.01 0.02 0.00 0.00 0.00 0.00 0.00 0.00 0.00 0.00 0.00 0.00 0.00 0.00 0.00 0.00 0.00 0.00 0.00 0.00 0.00 0.00 0.00 0.00 0.00 0.00 0.00 0.00 0.00 0.00 0.00 0.00 0.00 0.00 0.00 0.00 0.00
0.00 0.00 0.00 0.00 0.00 0.00 0.00 0.00 0.00 0.00 0.00 0.00 0.00 0.01 0.01 0.00 0.00 0.00 0.00 0.00 0.00 0.00 0.00 0.00 0.00 0.00 0.00 0.00 0.00 0.00 0.00 0.00 0.00 0.00 0.00 0.00 0.00 0.00 0.00 0.00 0.00 0.00 0.00 0.00 0.00 0.00 0.00 0.00 0.00
0.00 0.00 0.00 0.00 0.00 0.00 0.00 0.00 0.00 0.00 0.00 0.00 0.00 0.01 0.01 0.00 0.00 0.00 0.00 0.00 0.00 0.00 0.00 0.00 0.00 0.00 0.00 0.00 0.00 0.00 0.00 0.00 0.00 0.00 0.00 0.00 0.00 0.00 0.00 0.00 0.00 0.00 0.00 0.00 0.00 0.00 0.00 0.00 0.00
0.00 0.00 0.00 0.00 0.00 0.00 0.00 0.00 0.00 0.01 0.00 0.00 0.00 0.00 0.01 0.01 0.00 0.00 0.00 0.00 0.00 0.00 0.00 0.00 0.00 0.00 0.00 0.00 0.00 0.00 0.00 0.00 0.00 0.00 0.00 0.00 0.00 0.00 0.00 0.00 0.00 0.00 0.00 0.00 0.00 0.00 0.00 0.00 0.00
0.00 0.00 0.00 0.00 0.00 0.00 0.00 0.00 0.00 0.00 0.00 0.00 0.00 0.00 0.01 0.01 0.00 0.00 0.00 0.00 0.00 0.00 0.00 0.00 0.00 0.00 0.00 0.00 0.00 0.00 0.00 0.00 0.00 0.00 0.00 0.00 0.00 0.00 0.00 0.00 0.00 0.00 0.00 0.00 0.00 0.00 0.00 0.00 0.00
0.00 0.00 0.00 0.00 0.00 0.00 0.00 0.00 0.00 0.00 0.00 0.00 0.02 0.03 0.01 0.01 0.00 0.00 0.00 0.00 0.00 0.00 0.00 0.00 0.00 0.00 0.00 0.00 0.00 0.00 0.00 0.00 0.00 0.00 0.00 0.00 0.00 0.00 0.00 0.00 0.00 0.00 0.00 0.00 0.00 0.00 0.00 0.00 0.00
0.00 0.00 0.00 0.00 0.00 0.00 0.00 0.00 0.00 0.00 0.00 0.00 0.00 0.01 0.01 0.02 0.01 0.00 0.00 0.00 0.00 0.00 0.00 0.00 0.00 0.00 0.00 0.00 0.00 0.00 0.00 0.00 0.00 0.00 0.00 0.00 0.00 0.00 0.00 0.00 0.00 0.00 0.00 0.00 0.00 0.00 0.00 0.00 0.00
0.00 0.00 0.00 0.00 0.00 0.00 0.00 0.00 0.00 0.00 0.00 0.00 0.00 0.00 0.02 0.01 0.01 0.00 0.00 0.00 0.00 0.00 0.00 0.00 0.00 0.00 0.00 0.00 0.00 0.00 0.00 0.00 0.00 0.00 0.00 0.00 0.00 0.00 0.00 0.00 0.00 0.00 0.00 0.00 0.00 0.00 0.00 0.00 0.00
0.00 0.00 0.00 0.00 0.00 0.00 0.00 0.00 0.00 0.00 0.00 0.00 0.01 0.00 0.00 0.00 0.00 0.00 0.00 0.00 0.00 0.00 0.00 0.00 0.00 0.00 0.00 0.00 0.00 0.00 0.00 0.00 0.00 0.00 0.00 0.00 0.00 0.00 0.00 0.00 0.00 0.00 0.00 0.00 0.00 0.00 0.00 0.00 0.00
0.00 0.00 0.00 0.00 0.00 0.00 0.00 0.00 0.00 0.00 0.00 0.00 0.03 0.04 0.04 0.06 0.01 0.00 0.00 0.00 0.00 0.01 0.00 0.00 0.00 0.00 0.00 0.00 0.00 0.00 0.00 0.00 0.00 0.00 0.00 0.00 0.00 0.00 0.00 0.00 0.00 0.00 0.00 0.00 0.00 0.00 0.00 0.00 0.00
0.00 0.00 0.00 0.00 0.00 0.00 0.00 0.00 0.00 0.00 0.00 0.00 0.00 0.01 0.05 0.07 0.02 0.00 0.00 0.00 0.00 0.00 0.01 0.02 0.03 0.00 0.00 0.00 0.00 0.00 0.00 0.00 0.00 0.00 0.00 0.00 0.00 0.00 0.00 0.00 0.00 0.00 0.00 0.00 0.00 0.00 0.00 0.00 0.00
MSLP
1010.18 1010.38 1010.43 1010.55 1010.94 1009.80 1008.46 1007.38 1006.57 1006.75 1007.26 1007.40 1007.54 1008.17 1009.76 1010.40 1010.98 1013.17 1013.33 1013.88 1014.13 1014.59 1014.71 1014.85 1014.92 1014.99 1015.09 1015.28 1015.40 1015.48 1015.52 1015.75 1015.85 1016.00 1016.06 1016.11 1016.22 1016.27 1016.44 1016.47 1016.61 1016.71 1016.76 1016.75 1016.68 1016.63 1016.63 1016.80 1016.83
1010.23 1010.54 1010.55 1010.47 1010.09 1008.95 1007.89 1007.03 1006.69 1006.74 1007.49 1007.33 1007.91 1008.77 1009.47 1011.12 1011.51 1012.86 1013.68 1014.13 1014.07 1014.48 1014.86 1015.00 1015.01 1015.18 1015.34 1015.46 1015.60 1015.72 1015.72 1015.82 1016.00 1016.18 1016.31 1016.33 1016.36 1016.43 1016.53 1016.60 1016.72 1016.90 1017.05 1017.03 1017.04 1017.02 1017.06 1017.15 1017.21
1010.45 1010.39 1010.55 1010.22 1009.52 1008.34 1007.42 1006.85 1006.80 1007.12 1007.12 1006.92 1008.28 1009.05 1010.27 1011.70 1011.94 1012.65 1013.31 1014.03 1014.23 1014.72 1014.99 1015.06 1015.21 1015.32 1015.49 1015.58 1015.70 1015.84 1015.96 1016.11 1016.25 1016.30 1016.38 1016.43 1016.54 1016.55 1016.62 1016.71 1016.82 1017.03 1017.17 1017.11 1017.14 1017.30 1017.41 1017.44 1017.51
1010.48 1010.48 1010.98 1010.37 1008.89 1007.27 1006.56 1006.75 1006.76 1006.91 1007.40 1007.74 1008.43 1009.73 1010.70 1011.22 1011.75 1012.51 1013.53 1014.01 1014.40 1014.82 1015.01 1015.16 1015.29 1015.48 1015.59 1015.74 1015.92 1015.98 1016.09 1016.20 1016.40 1016.52 1016.60 1016.77 1016.77 1016.75 1016.76 1016.87 1017.07 1017.26 1017.43 1017.34 1017.29 1017.38 1017.55 1017.65 1017.79
1010.60 1010.57 1010.42 1009.56 1008.36 1006.69 1006.38 1006.33 1006.59 1007.12 1008.00 1008.54 1008.58 1010.61 1011.22 1011.73 1012.03 1012.95 1013.62 1014.09 1014.34 1014.93 1015.12 1015.29 1015.44 1015.64 1015.70 1015.74 1015.82 1016.05 1016.16 1016.32 1016.49 1016.66 1016.79 1016.90 1016.92 1016.86 1016.83 1016.91 1017.07 1017.31 1017.49 1017.45 1017.52 1017.50 1017.66 1017.76 1017.95
1010.93 1010.90 1010.47 1009.58 1008.11 1006.93 1006.40 1006.35 1006.80 1007.56 1008.42 1009.31 1009.88 1010.64 1011.93 1012.16 1012.60 1013.27 1013.77 1014.27 1014.34 1014.91 1015.16 1015.36 1015.63 1015.69 1015.73 1015.80 1016.11 1016.22 1016.39 1016.48 1016.50 1016.52 1016.72 1016.97 1017.12 1017.12 1017.08 1017.04 1017.17 1017.47 1017.55 1017.65 1017.79 1017.76 1017.85 1017.94 1017.95
1010.86 1010.94 1011.35 1009.74 1008.57 1007.32 1006.80 1006.66 1006.89 1007.68 1008.41 1009.21 1009.79 1011.05 1012.32 1012.59 1012.97 1013.49 1013.98 1014.41 1014.73 1014.93 1015.18 1015.54 1015.70 1015.76 1015.88 1016.05 1016.20 1016.15 1016.30 1016.35 1016.29 1016.45 1016.59 1016.79 1016.91 1017.17 1017.35 1017.20 1017.31 1017.33 1017.52 1017.59 1017.81 1017.93 1018.01 1017.97 1018.04
1010.71 1011.33 1011.73 1010.52 1009.14 1008.10 1006.88 1006.84 1007.15 1007.42 1008.46 1009.08 1009.21 1010.75 1011.70 1012.31 1012.94 1013.64 1014.16 1014.65 1015.06 1015.25 1015.33 1015.62 1015.78 1015.92 1015.98 1016.17 1016.17 1016.17 1016.23 1016.17 1016.30 1016.39 1016.60 1016.72 1016.83 1016.92 1017.18 1017.29 1017.37 1017.33 1016.96 1017.52 1017.72 1018.01 1018.05 1018.06 1018.14
1010.03 1010.80 1011.21 1010.52 1009.50 1008.60 1007.32 1007.10 1007.49 1007.44 1008.47 1008.97 1009.15 1009.78 1010.88 1011.98 1013.14 1013.92 1014.57 1015.20 1015.44 1015.52 1015.63 1015.64 1015.89 1016.08 1016.04 1016.38 1016.27 1016.26 1016.32 1016.41 1016.54 1016.52 1016.68 1016.82 1016.92 1016.97 1017.01 1017.28 1017.21 1017.16 1017.25 1017.40 1017.72 1018.04 1018.26 1018.30 1018.38
1009.31 1009.91 1009.96 1009.34 1008.97 1009.34 1008.84 1008.15 1007.34 1008.07 1008.87 1009.31 1009.84 1010.64 1011.32 1012.21 1013.12 1013.94 1014.67 1015.23 1015.39 1015.55 1015.72 1015.84 1015.85 1016.10 1016.17 1016.28 1016.28 1016.40 1016.39 1016.55 1016.86 1016.68 1016.57 1016.60 1016.88 1017.02 1017.09 1017.19 1017.36 1017.36 1017.26 1017.43 1017.88 1018.15 1018.33 1018.43 1018.55
1007.95 1008.47 1008.71 1008.99 1008.85 1009.36 1010.24 1009.52 1009.11 1008.85 1009.33 1008.81 1009.54 1010.47 1011.41 1012.26 1013.21 1013.82 1014.40 1014.63 1014.95 1015.23 1015.54 1015.73 1015.79 1015.97 1016.18 1016.19 1016.39 1016.48 1016.55 1016.79 1017.12 1016.78 1016.34 1016.39 1016.83 1017.26 1017.27 1017.45 1017.63 1017.78 1017.72 1017.79 1018.00 1018.21 1018.47 1018.61 1018.74
1007.10 1007.18 1007.99 1008.49 1009.26 1010.22 1010.73 1010.89 1010.27 1009.90 1009.31 1009.08 1009.51 1010.30 1011.21 1012.18 1012.96 1013.45 1013.89 1014.47 1014.88 1015.22 1015.24 1015.42 1015.47 1015.81 1016.14 1016.25 1016.42 1016.26 1016.52 1016.89 1016.91 1016.77 1016.59 1016.76 1017.41 1017.61 1017.57 1017.87 1017.96 1017.96 1018.16 1018.36 1018.29 1018.46 1018.72 1018.71 1018.78
1006.14 1006.27 1007.95 1008.61 1009.31 1010.49 1011.88 1011.57 1011.61 1010.88 1009.63 1009.93 1009.98 1010.73 1011.50 1012.10 1012.65 1012.99 1013.36 1014.02 1014.47 1014.97 1015.16 1015.31 1015.52 1015.87 1016.03 1016.25 1016.47 1016.27 1016.49 1016.61 1016.90 1017.17 1016.57 1016.89 1017.43 1017.46 1017.58 1017.76 1017.98 1017.99 1018.07 1018.26 1018.39 1018.69 1018.80 1018.80 1018.82
1006.18 1007.03 1008.37 1009.19 1009.55 1010.48 1011.14 1012.49 1011.81 1011.98 1011.38 1010.69 1010.62 1010.84 1011.48 1012.04 1012.40 1012.88 1013.39 1013.67 1014.38 1014.57 1014.94 1015.20 1015.46 1015.59 1015.84 1016.23 1016.42 1016.47 1016.29 1016.47 1016.76 1016.93 1016.83 1016.81 1017.10 1017.29 1017.62 1017.67 1017.58 1018.03 1018.18 1018.18 1018.29 1018.60 1018.74 1018.79 1018.81
1007.10 1007.97 1009.22 1009.75 1009.04 1009.75 1010.37 1011.98 1013.19 1012.39 1012.02 1011.50 1011.00 1010.85 1011.38 1011.73 1012.32 1012.66 1013.05 1013.56 1013.91 1014.39 1014.87 1015.23 1015.38 1015.30 1015.56 1016.29 1016.33 1016.18 1016.21 1016.23 1016.83 1016.84 1016.90 1016.96 1016.91 1016.90 1017.32 1017.49 1017.74 1018.10 1018.25 1018.17 1018.03 1018.42 1018.59 1018.65 1018.50
1007.02 1008.08 1009.40 1009.91 1009.63 1009.43 1010.08 1010.83 1011.82 1012.15 1012.44 1011.82 1011.17 1010.71 1011.06 1011.44 1011.84 1012.28 1012.71 1013.36 1013.89 1014.27 1014.85 1015.05 1015.28 1015.48 1015.67 1016.17 1016.03 1015.84 1016.23 1016.36 1016.50 1016.57 1016.65 1016.91 1017.09 1016.97 1017.38 1017.76 1017.83 1017.93 1018.25 1018.22 1018.09 1018.53 1018.63 1018.78 1018.52
1007.13 1008.13 1009.22 1009.99 1009.72 1010.15 1010.34 1011.02 1011.89 1011.60 1012.10 1011.79 1011.22 1010.54 1010.63 1011.07 1011.65 1011.92 1012.42 1013.03 1013.65 1014.17 1014.56 1014.96 1015.25 1015.45 1015.74 1015.93 1016.03 1016.21 1016.09 1016.32 1016.38 1016.20 1016.24 1016.25 1016.26 1016.80 1017.25 1017.65 1017.74 1017.58 1017.92 1017.89 1017.95 1018.08 1018.42 1018.39 1018.38
1007.56 1008.01 1009.12 1009.35 1009.97 1010.31 1010.42 1011.07 1011.59 1011.41 1011.58 1011.16 1010.84 1010.62 1010.32 1010.56 1011.09 1011.53 1012.15 1012.86 1013.35 1013.85 1014.29 1014.75 1015.26 1015.60 1015.75 1016.11 1016.41 1016.21 1016.25 1016.33 1016.55 1016.49 1016.36 1016.37 1016.54 1016.61 1016.86 1017.27 1017.61 1017.74 1017.88 1018.05 1018.09 1018.19 1018.30 1018.41 1018.45
1007.26 1007.93 1008.34 1008.99 1009.52 1009.86 1010.46 1010.80 1011.12 1011.28 1010.92 1010.53 1010.13 1010.21 1010.21 1010.16 1010.60 1011.09 1011.76 1012.51 1013.17 1013.64 1014.21 1014.66 1015.17 1015.53 1015.71 1016.28 1016.61 1016.93 1016.80 1016.64 1016.73 1016.51 1016.38 1016.33 1016.40 1016.56 1016.77 1017.07 1017.22 1017.57 1017.92 1018.14 1018.12 1018.36 1018.59 1018.52 1018.60
1006.54 1007.45 1008.31 1008.98 1009.64 1010.12 1010.44 1010.35 1010.13 1010.17 1009.60 1009.23 1009.31 1009.58 1009.62 1009.95 1010.48 1010.82 1011.39 1012.20 1012.76 1013.45 1013.98 1014.43 1014.92 1015.31 1015.46 1015.82 1016.16 1016.49 1016.50 1016.64 1016.70 1016.56 1016.51 1016.38 1016.47 1016.79 1017.06 1017.35 1017.62 1017.64 1018.05 1018.26 1018.34 1018.36 1018.82 1018.92 1018.81
1005.89 1006.81 1007.57 1007.98 1009.19 1009.76 1010.31 1010.36 1009.46 1008.59 1008.91 1009.22 1009.04 1008.98 1009.21 1009.21 1009.98 1010.58 1011.09 1011.75 1012.40 1013.08 1013.69 1014.16 1014.75 1015.02 1015.29 1015.54 1016.21 1016.32 1016.51 1016.92 1017.18 1017.05 1016.88 1016.62 1016.50 1016.79 1017.00 1017.28 1017.49 1017.65 1017.99 1018.29 1018.43 1018.49 1018.74 1019.25 1019.19
1005.55 1005.20 1006.25 1007.75 1008.86 1009.71 1009.97 1009.93 1008.85 1008.29 1008.26 1008.20 1008.38 1008.46 1008.45 1008.90 1009.26 1010.03 1010.74 1011.40 1011.92 1012.57 1013.23 1013.84 1014.43 1014.78 1015.02 1015.33 1015.93 1016.49 1016.61 1016.95 1017.06 1016.90 1016.84 1016.80 1016.73 1017.02 1017.10 1017.18 1017.39 1017.75 1018.05 1018.30 1018.42 1018.68 1018.93 1019.22 1019.47
1004.79 1004.79 1005.92 1007.03 1007.85 1009.02 1009.78 1009.73 1007.99 1007.19 1007.77 1007.22 1007.17 1007.73 1007.77 1008.05 1008.47 1009.10 1009.83 1010.53 1011.23 1012.04 1012.91 1013.53 1014.11 1014.48 1014.94 1015.33 1015.56 1016.19 1016.44 1016.66 1016.74 1016.99 1016.90 1016.87 1016.90 1017.02 1016.91 1016.98 1017.33 1017.75 1017.93 1018.29 1018.45 1018.79 1018.99 1019.02 1019.41
1004.41 1005.01 1005.70 1006.44 1007.60 1009.02 1008.32 1008.67 1007.33 1006.70 1004.93 1005.67 1005.95 1006.40 1006.80 1007.27 1007.74 1008.33 1009.13 1009.96 1010.69 1011.49 1012.30 1013.10 1013.88 1014.20 1014.67 1015.15 1015.45 1015.95 1016.33 1016.61 1016.80 1017.11 1017.15 1017.06 1016.93 1017.10 1017.02 1017.02 1017.22 1017.49 1017.71 1018.13 1018.41 1018.65 1018.86 1019.03 1019.18
1004.73 1005.88 1006.90 1008.04 1008.88 1008.29 1007.72 1007.87 1005.66 1004.04 1003.35 1002.90 1003.85 1004.62 1005.48 1006.53 1006.95 1007.72 1008.56 1009.43 1010.23 1010.90 1011.66 1012.45 1013.18 1013.82 1014.43 1014.82 1015.32 1015.67 1016.07 1016.25 1016.48 1016.73 1016.89 1017.22 1017.17 1017.16 1017.28 1017.16 1017.40 1017.61 1017.60 1017.86 1018.14 1018.49 1018.75 1018.89 1018.96
1004.72 1005.88 1007.09 1007.89 1008.78 1008.22 1007.32 1006.12 1003.20 1001.92 1001.79 1002.72 1002.91 1003.42 1004.14 1005.28 1006.13 1006.66 1007.12 1008.01 1008.98 1009.98 1010.86 1011.65 1012.50 1013.13 1013.78 1014.42 1014.90 1015.28 1015.83 1015.92 1016.07 1016.35 1016.62 1016.76 1016.92 1016.79 1016.84 1017.00 1017.17 1017.41 1017.59 1017.80 1017.94 1018.35 1018.57 1018.70 1018.77
1004.49 1005.11 1005.78 1007.42 1008.08 1007.46 1006.16 1004.56 1002.45 1001.45 1001.75 1002.39 1002.73 1002.51 1002.87 1003.74 1004.73 1005.66 1006.28 1007.10 1008.07 1009.00 1009.88 1010.88 1011.74 1012.37 1013.16 1013.73 1014.41 1014.84 1015.35 1015.71 1015.89 1016.03 1016.30 1016.59 1016.72 1016.74 1016.86 1016.88 1017.15 1017.16 1017.46 1017.66 1017.81 1018.18 1018.38 1018.54 1018.65
1003.84 1004.48 1005.81 1006.95 1007.82 1007.81 1006.20 1004.78 1003.56 1002.97 1002.60 1002.34 1003.35 1003.16 1002.85 1003.31 1004.21 1005.00 1005.82 1006.53 1007.16 1008.03 1009.02 1010.24 1011.14 1011.67 1012.30 1012.89 1013.55 1014.15 1014.74 1015.20 1015.50 1015.67 1015.98 1016.32 1016.47 1016.35 1016.45 1016.79 1017.00 1017.20 1017.20 1017.34 1017.73 1017.97 1018.13 1018.37 1018.46
1003.93 1004.21 1005.38 1006.40 1006.92 1006.95 1006.21 1005.22 1002.65 1002.26 1002.72 1002.99 1002.83 1003.88 1004.34 1004.59 1004.62 1004.91 1005.31 1005.95 1006.87 1008.08 1008.78 1009.60 1010.64 1011.41 1012.10 1012.33 1012.84 1013.47 1014.07 1014.64 1015.04 1015.30 1015.50 1015.91 1016.00 1015.96 1016.11 1016.38 1016.73 1016.98 1017.08 1017.26 1017.52 1017.66 1017.78 1017.98 1018.22
1003.67 1004.00 1004.70 1005.87 1006.68 1006.36 1005.68 1004.25 1002.24 1001.53 1002.57 1003.77 1004.38 1004.79 1005.11 1005.30 1004.95 1005.25 1005.14 1005.79 1006.35 1007.31 1008.34 1009.16 1010.22 1011.03 1011.50 1012.00 1012.33 1012.81 1013.29 1013.94 1014.45 1014.84 1015.02 1015.28 1015.53 1015.53 1015.74 1016.07 1016.38 1016.57 1016.78 1016.99 1017.12 1017.27 1017.41 1017.58 1017.77
Thickness
5802 5802 5803 5796 5773 5775 5774 5794 5816 5804 5801 5816 5821 5808 5789 5790 5781 5746 5780 5776 5772 5767 5763 5760 5758 5757 5756 5753 5751 5750 5749 5746 5746 5745 5745 5744 5741 5740 5738 5740 5739 5739 5739 5741 5743 5745 5747 5748 5750
5804 5802 5797 5788 5772 5765 5778 5805 5798 5809 5810 5820 5816 5807 5796 5777 5792 5778 5773 5775 5773 5768 5763 5760 5759 5758 5755 5753 5750 5749 5749 5748 5746 5744 5743 5742 5741 5740 5738 5738 5737 5737 5737 5740 5742 5745 5746 5748 5749
5805 5805 5783 5777 5773 5768 5780 5806 5810 5814 5823 5824 5808 5812 5796 5776 5790 5784 5784 5778 5773 5767 5762 5761 5759 5758 5754 5754 5752 5750 5749 5748 5746 5745 5743 5741 5738 5737 5737 5737 5738 5736 5736 5740 5744 5744 5745 5746 5747
5802 5798 5786 5771 5775 5802 5805 5810 5818 5817 5820 5822 5814 5793 5802 5805 5795 5792 5786 5781 5774 5766 5764 5762 5760 5758 5756 5755 5753 5752 5751 5750 5747 5744 5741 5738 5736 5736 5737 5737 5736 5735 5735 5741 5744 5745 5745 5746 5745
5801 5791 5772 5777 5786 5813 5822 5826 5824 5812 5809 5808 5815 5787 5788 5800 5801 5794 5787 5781 5775 5768 5765 5763 5761 5758 5757 5757 5758 5756 5754 5752 5750 5747 5743 5740 5739 5738 5738 5738 5738 5736 5737 5743 5744 5746 5747 5747 5746
5783 5781 5770 5770 5792 5811 5822 5830 5823 5813 5808 5805 5798 5794 5785 5802 5795 5791 5787 5781 5777 5772 5768 5764 5761 5759 5759 5760 5757 5757 5756 5755 5754 5752 5747 5743 5740 5738 5739 5742 5741 5740 5742 5746 5746 5746 5748 5749 5749
5779 5774 5758 5774 5791 5800 5813 5829 5816 5810 5807 5802 5810 5784 5786 5792 5795 5792 5787 5783 5778 5775 5771 5766 5763 5761 5760 5760 5760 5761 5760 5760 5761 5757 5753 5749 5746 5743 5739 5742 5743 5745 5748 5750 5750 5750 5749 5751 5752
5785 5772 5756 5771 5783 5788 5821 5824 5824 5818 5808 5821 5820 5786 5781 5793 5797 5792 5788 5783 5778 5777 5775 5770 5766 5762 5762 5762 5763 5764 5765 5766 5765 5764 5760 5758 5755 5752 5748 5745 5744 5747 5757 5755 5755 5753 5756 5757 5758
5802 5773 5762 5772 5785 5792 5822 5818 5827 5835 5815 5817 5820 5814 5812 5808 5797 5788 5781 5777 5778 5778 5778 5774 5770 5766 5766 5763 5766 5769 5769 5768 5767 5769 5768 5765 5762 5761 5760 5754 5753 5757 5761 5763 5762 5760 5758 5760 5761
5790 5771 5776 5792 5796 5791 5802 5811 5824 5816 5808 5806 5807 5811 5812 5806 5797 5786 5780 5776 5777 5777 5780 5778 5776 5772 5771 5769 5773 5773 5775 5773 5772 5774 5774 5774 5771 5769 5767 5765 5762 5763 5767 5769 5767 5764 5763 5763 5765
5803 5784 5795 5794 5806 5800 5787 5800 5808 5807 5795 5812 5804 5805 5807 5803 5796 5790 5785 5785 5783 5783 5784 5784 5783 5779 5775 5775 5777 5778 5778 5777 5775 5778 5782 5782 5777 5773 5774 5773 5768 5769 5772 5773 5771 5769 5767 5768 5769
5795 5812 5804 5801 5805 5790 5777 5788 5796 5797 5804 5819 5816 5814 5808 5800 5797 5793 5789 5786 5785 5785 5788 5791 5789 5785 5780 5781 5781 5785 5783 5780 5783 5782 5782 5784 5778 5776 5778 5778 5773 5772 5775 5775 5775 5773 5770 5771 5773
5809 5819 5810 5807 5805 5796 5782 5772 5776 5791 5810 5814 5815 5810 5804 5801 5799 5802 5799 5795 5794 5789 5790 5792 5792 5791 5784 5786 5784 5787 5787 5786 5786 5783 5788 5788 5783 5781 5783 5785 5780 5778 5780 5781 5781 5777 5774 5776 5775
5812 5808 5800 5798 5796 5795 5785 5771 5769 5779 5796 5802 5806 5804 5804 5801 5802 5802 5799 5797 5794 5795 5794 5794 5795 5795 5791 5789 5785 5788 5793 5791 5791 5789 5791 5792 5790 5788 5788 5787 5787 5783 5784 5786 5786 5783 5780 5781 5781
5806 5785 5786 5787 5802 5792 5794 5772 5759 5771 5785 5792 5797 5804 5804 5805 5803 5803 5804 5798 5799 5797 5797 5795 5797 5797 5797 5791 5791 5794 5796 5796 5794 5796 5794 5793 5795 5796 5795 5794 5790 5785 5785 5788 5791 5788 5787 5786 5787
5792 5785 5757 5783 5791 5796 5793 5767 5775 5777 5775 5784 5794 5804 5805 5805 5805 5809 5808 5801 5801 5801 5796 5799 5800 5799 5799 5796 5794 5798 5799 5800 5800 5798 5798 5796 5796 5799 5797 5795 5793 5791 5790 5791 5792 5790 5788 5787 5789
5781 5764 5760 5769 5795 5785 5783 5767 5770 5780 5774 5781 5792 5802 5806 5806 5805 5810 5811 5805 5803 5801 5800 5798 5799 5799 5799 5800 5799 5796 5799 5802 5803 5804 5803 5803 5804 5801 5799 5796 5795 5796 5793 5795 5796 5794 5792 5791 5790
5762 5770 5768 5772 5782 5780 5773 5768 5770 5780 5781 5782 5793 5796 5804 5807 5807 5811 5810 5807 5806 5805 5804 5801 5799 5797 5799 5798 5798 5801 5800 5802 5801 5802 5804 5804 5803 5803 5803 5800 5798 5796 5796 5794 5794 5793 5794 5794 5793
5783 5777 5775 5778 5788 5778 5770 5768 5774 5782 5787 5790 5797 5797 5798 5806 5812 5814 5811 5809 5806 5805 5803 5802 5799 5799 5799 5795 5793 5791 5793 5797 5800 5802 5803 5805 5803 5803 5804 5802 5801 5797 5794 5791 5792 5791 5790 5791 5794
5784 5773 5766 5775 5782 5778 5771 5768 5780 5783 5792 5802 5802 5803 5806 5803 5805 5810 5811 5808 5808 5805 5804 5804 5802 5801 5801 5801 5800 5797 5798 5799 5799 5801 5803 5804 5802 5800 5799 5799 5798 5799 5795 5793 5792 5792 5788 5791 5793
5781 5770 5767 5771 5777 5784 5772 5763 5779 5803 5802 5803 5807 5811 5810 5811 5803 5806 5808 5808 5809 5807 5804 5806 5804 5803 5804 5804 5801 5800 5800 5797 5795 5798 5801 5803 5805 5803 5802 5800 5799 5800 5799 5797 5795 5795 5793 5789 5792
5759 5802 5796 5774 5763 5743 5773 5743 5780 5790 5796 5806 5808 5811 5812 5814 5812 5809 5807 5807 5809 5810 5809 5808 5808 5805 5806 5806 5802 5797 5796 5793 5797 5801 5803 5804 5803 5802 5803 5804 5804 5803 5801 5801 5801 5799 5796 5793 5787
5784 5806 5794 5780 5767 5760 5754 5747 5778 5798 5787 5803 5815 5816 5817 5820 5818 5813 5813 5814 5816 5815 5810 5810 5810 5809 5806 5805 5805 5800 5798 5799 5802 5802 5804 5806 5805 5805 5807 5808 5807 5806 5804 5803 5803 5799 5797 5795 5790
5806 5792 5788 5783 5768 5726 5767 5755 5768 5779 5812 5819 5825 5826 5825 5823 5821 5819 5822 5821 5818 5818 5815 5811 5808 5810 5808 5806 5805 5802 5801 5799 5799 5799 5801 5805 5807 5808 5808 5809 5810 5808 5808 5806 5804 5802 5800 5799 5798
5783 5753 5719 5721 5711 5719 5767 5753 5787 5815 5832 5844 5838 5838 5834 5827 5826 5822 5821 5821 5818 5818 5816 5815 5812 5808 5809 5808 5805 5805 5803 5803 5802 5803 5804 5803 5805 5807 5807 5809 5808 5809 5809 5808 5807 5806 5804 5802 5801
5763 5749 5713 5707 5708 5736 5767 5751 5796 5841 5851 5848 5849 5850 5846 5835 5830 5830 5832 5832 5828 5824 5820 5818 5815 5813 5812 5811 5808 5807 5805 5806 5806 5806 5806 5807 5807 5811 5811 5811 5810 5809 5809 5809 5808 5807 5806 5805 5804
5759 5742 5766 5740 5740 5735 5754 5787 5822 5837 5833 5835 5838 5852 5851 5848 5844 5838 5839 5841 5837 5832 5827 5822 5819 5817 5814 5814 5812 5809 5807 5805 5807 5808 5808 5808 5809 5811 5811 5811 5812 5811 5809 5809 5809 5807 5805 5805 5805
5762 5776 5741 5726 5714 5716 5745 5773 5770 5804 5816 5828 5823 5834 5849 5857 5849 5845 5843 5843 5844 5840 5835 5828 5823 5821 5819 5817 5817 5815 5809 5808 5809 5811 5809 5808 5811 5813 5813 5812 5812 5812 5812 5811 5810 5809 5808 5805 5804
5746 5745 5750 5741 5732 5717 5722 5743 5801 5812 5813 5813 5825 5817 5824 5828 5838 5845 5847 5847 5845 5837 5834 5830 5826 5819 5816 5818 5818 5817 5813 5811 5810 5810 5812 5810 5813 5815 5814 5814 5812 5812 5813 5812 5810 5809 5809 5806 5803
5754 5749 5743 5723 5722 5733 5733 5748 5818 5832 5814 5807 5803 5808 5812 5819 5831 5839 5846 5847 5846 5841 5834 5829 5825 5821 5818 5817 5817 5817 5817 5812 5810 5809 5812 5813 5811 5815 5815 5814 5813 5813 5812 5812 5811 5810 5810 5807 5805